Terminal Aerodrome Forecast
Issued by NWS

Home | Current Version | Previous Version | Text Only | Print | Product List | Glossary On
Versions: 1 2 3 4 5 6 7 8 9 10 11 12 13 14 15
000
FTUS43 KSGF 220500
TAFJLN
TAF
KJLN 220520Z 2206/2306 20005KT P6SM SCT250
     FM221600 20009KT P6SM FEW050 SCT250=

USA.gov is the U.S. government's official web portal to all federal, state and local government web resources and services.